{"data":{"norad_id":65463,"epoch":"2026-09-20T21:46:19.602912Z","epoch_age_seconds":79620,"freshness":"FRESH","line1":"1 65463U 25195F   26263.90717133  .00019934  00000+0  65192-3 0  9997","line2":"2 65463  53.1616  69.9098 0002303  28.1793 331.9333 15.31723793 59906","mean_motion":15.31723793,"eccentricity":0.0002303,"inclination_deg":53.1616,"raan_deg":69.9098,"arg_perigee_deg":28.1793,"mean_anomaly_deg":331.9333,"bstar":0.00065192,"rev_number":5990,"period_min":94.01172760917,"perigee_km":469.09179041081,"apogee_km":472.24635048686,"semimajor_km":6848.8060704488,"source":"CELESTRAK","updated_at":"2026-09-21T09:00:35.614701Z"}}